Uitslag 5 & 10 Kilometer dames en heren 10-06-2018

10 kilometer Heren
# Naam Tijd km/hr min/km
1 Lean de Ruiter 00:39:17 15,3 03:56
2 Bob Lawende 00:41:07 14,6 04:07
3 Juul van de Sande 00:41:24 14,5 04:08
4 Dennis Haverkamp 00:43:00 14,0 04:18
5 Jeroen Hollebrands 00:43:22 13,8 04:20
6 John Marijnissen 00:43:50 13,7 04:23
7 Vincenzo Sacento 00:45:07 13,3 04:31
8 Dirk Cales 00:45:10 13,3 04:31
9 Rob Smits 00:45:22 13,2 04:32
10 Johan Vissers 00:46:52 12,8 04:41
11 Kenneth Oppermans 00:48:41 12,3 04:52
12 Michael Pijnenburg 00:48:44 12,3 04:52
13 Fred Kooijmans 00:48:50 12,3 04:53
14 Wouter Withagen 00:48:55 12,3 04:53
15 Raf Dubois 00:49:15 12,2 04:55
16 Rob van der Zande 00:49:28 12,1 04:57
17 Robert Koolen 00:49:45 12,1 04:59
18 Rob Teunissen 00:51:20 11,7 05:08
19 Tom van Riel 00:53:05 11,3 05:19
20 Ad Vermolen 00:53:56 11,1 05:24
21 Jack Moerman 00:54:31 11,0 05:27
22 Jeroen Broeren 00:55:35 10,8 05:34
23 Bart Bosmans 00:55:40 10,8 05:34
24 Maarten Neijenhuijs 00:55:42 10,8 05:34
25 Martijn Koster 00:56:31 10,6 05:39
26 Stefan Carton 00:57:54 10,4 05:47
27 Leemans Theo 01:02:56 9,5 06:18
28 Bob Luijendijk 01:03:02 9,5 06:18
29 Niels de Jong 01:03:21 9,5 06:20
30 Marek Banka 01:04:44 9,3 06:28
10 kilometer Dames
# Naam Tijd km/hr min/km
1 Patricia Kloonen 00:47:41 12,6 04:46
2 Marianne Bom 00:50:56 11,8 05:06
3 Justyna Staniszewska 00:52:37 11,4 05:16
4 Sterre Simons 00:52:54 11,3 05:17
5 Petrouska Martens 00:55:45 10,8 05:34
6 Claudia Kryczka 00:59:10 10,1 05:55
7 Lea van den Berg 00:59:52 10,0 05:59
8 Mariange Dubois 00:59:59 10,0 06:00
9 Lyanne Anssums 01:01:27 9,8 06:09
10 Joyce Martens 01:01:41 9,7 06:10
11 Karin Bonhof 01:01:52 9,7 06:11
12 Grace Croft 01:02:46 9,6 06:17
13 Geke van der Ven 01:02:53 9,5 06:17
14 Anna Pielaskiewicz 01:06:00 9,1 06:36
Heren 5 Kilometer
# Naam Tijd km/hr min/km
1 Mitchel van Oudenaarden 00:18:11 16,5 03:38
2 Cor Hamels 00:20:34 14,6 04:07
3 Chris Romme 00:20:42 14,5 04:08
4 Jan van Gerwen 00:21:12 14,1 04:14
5 Stijn Bogers 00:21:43 13,8 04:21
6 Paul van de Heuvel 00:22:18 13,4 04:28
7 Mats verhulst 00:22:37 13,3 04:31
8 Ton Bastiaansen 00:22:50 13,1 04:34
9 Stefan Kapitein 00:22:59 13,1 04:36
10 Peter van Beurden 00:23:11 12,9 04:38
11 Edwin Hendriks 00:23:16 12,9 04:39
12 de heer Driesprong 00:23:48 12,6 04:46
13 Erik Rommers 00:23:52 12,6 04:46
14 Geert van Bragt 00:23:56 12,5 04:47
15 Jack Vissers 00:24:22 12,3 04:52
16 Evert Bot 00:24:31 12,2 04:54
17 Martijn Lint 00:24:32 12,2 04:54
18 Robert v.d   Gevel                   van UUM 00:24:37 12,2 04:55
19 Rene de Vries 00:24:44 12,1 04:57
20 Henk van de broek 00:25:02 12,0 05:00
21 Johan Segers 00:25:04 12,0 05:01
22 Eric de Nijs 00:25:24 11,8 05:05
23 Rick Chirstianen 00:25:42 11,7 05:08
24 tony Kleemans 00:25:44 11,7 05:09
25 Peter Lint 00:26:26 11,4 05:17
26 P. Luijkx 00:26:29 11,3 05:18
27 Mark Dirven 00:26:38 11,3 05:20
28 Michel Bego 00:27:05 11,1 05:25
29 Paul van de Heuvel 00:27:17 11,0 05:27
30 Fred Wijnman 00:27:40 10,8 05:32
31 Siem Jansen 00:28:23 10,6 05:41
32 Joep Jansen 00:28:24 10,6 05:41
33 Piet Sloven 00:28:38 10,5 05:44
34 Jessie Couperus 00:28:47 10,4 05:45
35 Jon de Wit 00:28:49 10,4 05:46
36 Wessel de Jong 00:29:55 10,0 05:59
37 Dirk Gerits 00:29:57 10,0 05:59
38 Frank van Gelder 00:30:07 10,0 06:01
39 Koos Geerts 00:30:32 9,8 06:06
40 Bert van Arendonk 00:30:49 9,7 06:10
41 Mitch Kapitein 00:31:05 9,7 06:13
42 Mats Hendrickx 00:31:27 9,5 06:17
43 William Simons 00:31:50 9,4 06:22
44 Arno Hendrickx 00:31:51 9,4 06:22
45 Ad van Hees 00:32:16 9,3 06:27
46 Josien van der Ham 00:33:36 8,9 06:43
47 Mark van Tilburg 00:34:06 8,8 06:49
5 Kilometer Dames
# Naam Tijd km/hr min/km
1 Samirah Fremouw 00:23:01 13,0 04:36
2 Francesca Theijsen 00:23:49 12,6 04:46
3 Diny Megens 00:26:51 11,2 05:22
4 Ria Rombouts 00:27:02 11,1 05:24
5 Maartje de Bakker 00:28:28 10,5 05:42
6 Wieke Sloven 00:28:37 10,5 05:43
7 Sarah Leuven 00:29:07 10,3 05:49
8 Irma  Machielsen 00:29:36 10,1 05:55
9 Moniek Kingma Schipper 00:30:22 9,9 06:04
10 Mirte Kerckhoffs 00:30:25 9,9 06:05
11 Danielle de jong 00:31:18 9,6 06:16
12 Lisa Verdaasdonck 00:31:24 9,6 06:17
13 Maartje Mulders 00:32:46 9,2 06:33
14 Monica van der Lans 00:33:27 9,0 06:41
15 Lesly de Vries 00:36:06 8,3 07:13